BEIDOU-3 M16 (43648 NORAD) Tracking and Keplerian Element Data

This shows tracking and keplerian element data for the satellite.

Feedback or suggestion? Click here.




ElementValue
Catalog43648
NameBEIDOU-3 M16
Epoch Orbit50
Epoch Day315.58123044
Epoch Year2018
RAAN35.7258
Inclination54.9959
Eccentricity0.0116467
Argument of Perigee178.1308
Mean Anonmoly119.6203
Mean Motion1.82894281
Decay Rate-1E-06
L11 43648U 18078B 18315.58123044 -.00000100 00000-0 10000-3 0 9990
L22 43648 54.9959 35.7258 0116467 178.1308 119.6203 1.82894281 501

Live tracking and technical data element details for BEIDOU-3 M16 (NORAD 43648). BEIDOU-3 M16 can be tracked NOW for your location showing map with azimuth and elevation plus other details from your city location.

Track the satellite on the map from your city or location and see movement details for azimuth, elevation, latitude, longitude, range, height, and movement on the map or in text.







IsCatalogInMostPopularTable: catalog: 43648, numindb: 15
Update: records affected: 1



GetName: 43648 BEIDOU-3 M16

Hit Count: updated at: Tue, 13 Nov 2018 07:07:14 GMT